SCP
0 0 0 0 0 0 0 0 0 0 0 0 0 0 0 0 0 0 0 0 0 0 0 0 0 0 0 0 0 0 0 0 0 0 0 0 0 0 0 0 0 0 0
0 0 0 0 0 0 0 0 0 0 0 0 0 0 0 0 0 0 0 0 0 0 0 0 0 0 0 0 0 0 0 0 0 0 0 0 0 0 0 0 0 0 0
0 0 0 0 0 0 0 0 0 0 0 0 0 0 0 0 0 0 0 0 0 0 0 0 0 0 0 0 0 0 0 0 0 0 0 0 0 0 0 0 0 0 0
0 0 0 0 0 0 0 0 0 0 0 0 0 0 0 0 0 0 0 0 0 0 0 0 0 0 0 0 0 0 0 0 0 0 0 0 0 0 0 0 0 0 0
0 0 0 0 0 0 0 0 0 0 0 0 0 0 0 0 0 0 0 0 0 0 0 0 0 0 0 0 0 0 0 0 0 0 0 0 0 0 0 0 0 0 0
0 0 0 0 0 0 0 0 0 0 0 0 0 0 0 0 0 0 0 0 0 0 0 0 0 0 0 0 0 0 0 0 0 0 0 0 0 0 0 0 0 0 0
0 0 0 0 0 0 0 0 0 0 0 0 0 0 0 0 0 0 0 0 0 0 0 0 0 0 0 0 0 0 0 0 0 0 0 0 0 0 0 0 0 0 0
0 0 0 0 0 0 0 0 0 0 0 0 0 0 0 0 0 0 0 0 0 0 0 0 0 0 0 0 0 0 0 0 0 0 0 0 0 0 0 0 0 0 0
0 0 0 0 0 0 0 0 0 0 0 0 0 0 0 0 0 0 0 0 0 0 0 0 0 0 0 0 0 0 0 0 0 0 0 0 0 0 0 0 0 0 0
0 0 0 0 0 0 0 0 0 0 0 0 0 0 0 0 0 0 0 0 0 0 0 0 0 0 0 0 0 0 0 0 0 0 0 0 0 0 0 0 0 0 0
0 0 0 0 0 0 0 0 0 0 0 0 0 0 0 0 0 0 0 0 0 0 0 0 0 0 0 0 0 0 0 0 0 0 0 0 0 0 0 0 0 0 0
0 0 0 0 0 0 0 0 0 0 0 0 0 0 0 0 0 0 0 0 0 0 0 0 0 0 0 0 0 0 0 0 0 0 0 0 0 0 0 0 0 0 0
0 0 0 0 0 0 0 0 0 0 0 0 0 0 0 0 0 0 0 0 0 0 0 0 0 0 0 0 0 0 0 0 0 0 0 0 0 0 0 0 0 0 0
0 0 0 0 0 0 0 0 0 0 0 0 0 0 0 0 0 0 0 0 0 0 0 0 0 0 0 0 0 0 0 0 0 0 0 0 0 0 0 0 0 0 0
0 0 0 0 0 0 0 0 0 0 0 0 0 0 0 0 0 0 0 0 0 0 0 0 0 0 0 0 0 0 0 0 0 0 0 0 0 0 0 0 0 0 0
0 0 0 0 0 0 0 0 0 0 0 0 0 0 0 0 0 0 0 0 0 0 0 0 0 0 0 0 0 0 0 0 0 0 0 0 0 0 0 0 0 0 0
0 0 0 0 0 0 0 0 0 0 0 0 0 0 0 0 0 0 0 0 0 0 0 0 0 0 0 0 0 0 0 0 0 0 0 0 0 0 0 0 0 0 0
0 0 0 0 0 0 0 0 0 0 0 0 0 0 0 0 0 0 0 0 0 0 0 0 0 0 0 0 0 0 0 0 0 0 0 0 0 0 0 0 0 0 0
0 0 0 0 0 0 0 0 0 0 0 0 0 0 0 0 0 0 0 0 0 0 0 0 0 0 0 0 0 0 0 0 0 0 0 0 0 0 0 0 0 0 0
0 0 0 0 0 0 0 0 0 0 0 0 0 0 0 0 0 0 0 0 0 0 0 0 0 0 0 0 0 0 0 0 0 0 0 0 0 0 0 0 0 0 0
0 0 0 0 0 0 0 0 0 0 0 0 0 0 0 0 0 0 0 0 0 0 0 0 0 0 0 0 0 0 0 0 0 0 0 0 0 0 0 0 0 0 0
0 0 0 0 0 0 0 0 0 0 0 0 0 0 0 0 0 0 0 0 0 0 0 0 0 0 0 0 0 0 0 0 0 0 0 0 0 0 0 0 0 0 0
0 0 0 0 0 0 0 0 0 0 0 0 0 0 0 0 0 0 0 0 0 0 0 0 0 0 0 0 0 0 0 0 0 0 0 0 0 0 0 0 0 0 0
0 0 0 0 0 0 0 0 0 0 0 0 0 0 0 0 0 0 0 0 0 0 0 0 0 0 0 0 0 0 0 0 0 0 0 0 0 0 0 0 0 0 0
0 0 0 0 0 0 0 0 0 0 0 0 0 0 0 0 0 0 0 0 0 0 0 0 0 0 0 0 0 0 0 0 0 0 0 0 0 0 0 0 0 0 0
0 0 0 0 0 0 0 0 0 0 0 0 0 0 0 0 0 0 0 0 0 0 0 0 0 0 0 0 0 0 0 0 0 0 0 0 0 0 0 0 0 0 0
Wind_Speed_500mb
34 33 33 34 35 36 38 40 42 45 48 46 47 43 45 49 47 46 39 40 43 43 42 44 40 39 30 34 33 26 23 19 19 20 18 19 22 24 32 33 29 27 31
30 30 30 29 28 29 31 32 33 33 34 34 35 37 34 29 34 40 39 40 41 42 38 35 27 32 26 24 25 22 20 19 14 11 13 18 28 30 28 26 26 28 30
28 27 27 28 29 29 27 26 26 26 25 24 23 22 23 24 26 26 31 33 38 36 30 26 24 24 23 22 19 14 10 9 11 11 23 28 32 32 25 28 33 37 44
26 27 27 26 26 26 25 24 24 22 23 19 18 21 21 23 28 31 35 33 28 20 17 23 19 17 15 11 9 9 11 10 18 25 25 30 25 24 32 34 38 43 46
26 26 26 26 25 24 23 21 19 21 19 20 19 19 20 20 22 20 15 13 15 17 21 19 17 15 13 9 6 10 19 25 26 27 27 18 21 27 32 38 43 48 52
29 29 27 28 27 25 23 22 22 21 21 16 16 17 16 17 18 19 18 18 22 23 20 17 16 16 14 10 15 24 29 30 31 22 15 16 20 28 34 39 44 49 53
34 34 33 31 28 26 25 24 24 22 21 16 17 20 21 22 22 22 23 23 22 19 17 16 16 16 15 21 28 35 35 30 21 18 16 21 23 31 36 36 37 40 44
38 37 35 32 30 29 28 25 25 22 21 19 20 22 21 22 22 23 22 21 21 21 21 19 17 18 24 32 37 36 25 20 16 15 21 22 26 29 32 35 38 41 41
42 38 35 32 30 30 29 27 24 23 21 20 22 23 23 22 23 24 24 26 27 25 23 19 22 24 34 36 32 25 22 19 18 21 23 26 29 29 31 32 33 39 45
37 33 32 30 29 29 28 26 25 25 25 25 25 26 26 26 27 30 31 31 31 30 24 23 26 34 38 32 25 26 22 21 22 23 21 22 25 26 28 31 33 36 39
32 31 29 29 29 29 28 27 28 28 28 28 28 30 31 32 35 37 37 37 37 31 27 29 33 38 35 29 27 26 22 22 25 26 21 21 22 25 27 29 31 32 32
28 27 28 28 29 30 30 30 30 30 31 31 33 35 37 38 40 41 42 41 40 34 33 36 40 41 35 32 31 27 26 27 28 23 23 22 23 23 24 25 26 28 30
28 28 28 28 28 29 30 31 30 32 34 36 37 40 41 42 42 44 46 46 43 39 40 42 42 44 40 38 34 32 31 30 27 27 23 24 24 24 24 22 22 22 25
23 23 23 25 27 31 32 32 33 35 37 39 41 42 44 45 47 48 50 52 48 45 44 44 45 47 44 41 37 36 34 31 30 30 27 26 26 27 26 24 21 19 17
19 19 22 27 30 33 35 34 35 36 37 39 40 42 46 47 47 50 53 52 48 47 47 48 50 48 48 47 44 42 40 38 36 34 30 28 27 29 28 27 26 23 22
17 18 22 27 31 33 34 34 35 36 38 41 45 48 49 50 52 53 53 56 56 55 56 56 57 56 53 51 50 49 47 46 42 39 35 31 31 29 27 28 27 25 24
16 19 24 27 30 33 35 38 40 41 43 46 49 52 53 57 60 59 59 64 67 68 65 62 63 64 61 59 59 58 55 52 48 44 40 35 33 31 29 29 30 28 28
16 20 24 27 31 35 38 42 45 48 51 52 51 53 55 60 64 64 66 71 74 74 73 66 66 67 66 66 65 64 63 59 55 49 45 41 37 35 32 31 32 32 32
19 23 27 31 34 37 41 44 47 51 54 56 57 58 57 60 62 65 63 71 79 79 79 80 69 68 68 69 68 68 68 64 60 57 53 49 43 39 36 34 34 34 35
29 32 35 38 41 43 46 48 51 55 57 59 60 61 61 61 67 71 72 71 77 80 77 80 77 73 74 71 71 72 71 71 69 64 60 54 48 42 39 37 37 37 37
29 33 36 40 43 46 49 52 53 55 58 61 63 62 63 66 69 70 76 81 84 91 88 85 83 80 75 75 74 77 77 77 74 71 66 60 52 47 43 42 40 38 39
34 38 40 43 47 49 52 54 57 59 62 64 65 65 63 65 71 76 76 80 85 92 95 93 93 92 88 85 82 80 81 80 78 74 68 63 58 53 48 46 42 41 42
40 42 44 47 49 53 55 56 59 61 63 65 66 68 67 69 71 72 76 78 79 87 93 91 92 94 93 95 91 82 83 82 78 72 67 66 62 58 52 49 46 44 43
47 50 52 55 57 59 61 62 62 63 64 65 66 66 66 66 68 72 73 70 74 80 88 89 87 87 90 90 94 88 84 82 77 71 71 72 66 60 57 53 50 46 45
54 56 58 59 60 61 63 64 65 65 66 67 68 67 66 67 68 70 73 75 72 76 81 81 82 82 82 84 89 91 86 83 85 76 75 73 68 64 59 56 52 49 48
60 60 61 61 62 63 64 65 65 65 66 67 67 68 70 70 72 71 71 73 73 73 75 75 77 74 73 76 81 84 85 85 84 77 74 72 71 67 61 58 54 52 51
Wind_Direction_500mb
211 218 221 227 232 239 247 251 252 251 255 254 253 251 250 252 254 249 254 250 249 258 267 275 280 254 260 273 271 269 269 266 270 274 280 286 295 305 308 308 312 323 330
207 215 221 225 229 234 238 245 247 251 252 250 251 254 254 243 241 242 243 255 248 257 270 276 263 264 264 274 277 280 291 295 279 285 280 295 304 304 305 316 325 333 336
201 209 215 223 230 235 240 244 248 247 244 241 237 233 240 242 237 239 243 253 262 271 259 267 263 273 279 284 286 290 270 256 264 283 300 299 302 305 310 324 328 334 348
206 216 223 229 235 238 239 239 239 234 236 227 227 237 243 249 252 256 261 267 251 238 274 281 274 271 269 265 249 245 257 272 291 292 292 294 298 316 325 327 335 341 342
221 229 233 235 238 239 242 244 247 245 235 233 240 246 248 250 258 264 233 236 281 283 267 258 257 244 224 230 259 290 290 287 285 288 295 296 318 319 323 333 333 338 344
229 236 237 239 240 242 242 246 247 248 252 241 234 234 242 247 250 258 268 263 261 255 247 240 220 205 209 233 289 293 286 282 283 279 282 307 311 315 329 330 337 342 344
236 237 236 236 236 236 239 243 248 242 241 234 237 233 235 239 239 245 247 244 238 228 221 213 212 212 250 285 298 296 284 285 273 276 289 299 314 325 325 325 330 338 338
235 235 234 233 233 232 232 233 236 240 239 240 237 240 242 238 236 233 224 217 216 212 210 211 223 258 281 296 292 285 275 267 267 282 291 305 315 317 322 325 330 332 335
232 233 235 234 233 233 234 234 236 239 235 236 240 239 240 236 231 225 218 215 210 210 207 232 257 278 295 289 281 265 259 259 271 282 293 304 310 317 320 321 328 330 336
228 229 229 227 228 231 235 237 238 237 235 234 235 241 238 234 229 226 221 216 214 212 237 256 277 290 287 275 257 248 251 261 273 275 285 298 304 310 314 320 327 334 337
219 220 222 225 227 228 231 233 238 236 238 239 239 240 239 235 229 226 224 221 219 230 253 274 288 290 282 261 248 249 253 258 264 269 283 287 296 301 310 318 323 327 330
216 219 222 225 230 232 232 234 237 240 241 241 242 242 240 237 232 227 226 228 227 247 265 281 288 283 268 254 251 251 249 256 257 265 274 285 290 298 304 308 313 319 322
211 213 220 228 233 237 238 240 240 242 244 244 244 244 243 241 237 234 235 231 238 254 272 280 279 271 261 254 253 252 252 255 259 265 271 276 283 288 294 300 306 312 312
205 215 225 233 239 242 244 244 245 245 245 245 246 246 246 244 243 243 241 239 247 264 278 280 276 264 256 253 250 248 251 252 254 261 264 272 281 289 295 300 304 304 304
212 223 233 239 244 246 247 249 250 250 251 253 254 254 253 254 254 252 251 252 259 272 279 276 270 260 254 253 249 247 248 248 249 255 259 266 278 286 292 299 303 308 312
226 238 247 251 255 259 261 263 264 264 265 263 262 260 258 257 254 253 256 256 262 271 275 272 268 261 258 255 251 249 248 247 247 251 254 261 271 277 285 291 295 301 306
247 255 261 266 270 271 273 275 276 273 272 270 267 265 264 263 260 261 262 260 263 268 270 272 266 262 260 256 253 251 250 248 247 249 252 256 264 269 277 285 291 296 300
266 272 278 281 281 281 281 281 282 281 279 276 272 270 268 266 265 266 267 266 265 267 271 272 264 258 259 256 255 254 251 249 249 250 251 255 257 262 270 277 284 291 296
278 280 281 283 286 288 289 289 288 286 284 282 280 278 276 274 271 268 264 258 261 263 268 274 271 261 260 257 256 253 251 250 249 250 250 251 253 257 265 274 280 286 292
281 282 285 287 288 289 289 289 288 287 286 285 283 282 282 277 271 270 268 263 260 262 267 272 275 266 264 259 257 254 251 251 250 249 250 250 251 255 262 270 277 283 288
286 288 289 289 289 289 289 289 288 287 287 287 287 285 283 279 276 272 271 270 268 269 270 273 275 272 264 260 257 256 253 251 249 249 249 250 250 254 259 266 272 277 280
290 290 290 291 292 293 293 293 293 292 291 291 291 289 287 282 279 278 275 272 273 274 275 275 276 273 267 259 259 257 255 252 251 249 249 251 251 252 256 263 268 273 276
297 297 297 296 296 296 295 294 294 294 294 294 294 294 293 290 287 284 283 283 280 279 277 277 277 276 273 265 260 254 253 252 251 251 250 251 250 252 255 260 264 267 272
295 295 294 294 294 293 293 293 293 293 293 294 294 294 292 291 290 289 287 284 283 282 281 282 280 278 276 268 261 255 253 252 249 247 248 248 248 248 252 256 261 265 267
291 291 291 292 292 292 292 293 293 293 294 295 296 297 296 295 294 294 292 291 288 284 283 283 281 280 277 271 262 256 252 249 248 246 246 245 246 247 248 252 256 259 262
290 290 291 291 290 290 291 292 293 295 296 298 298 299 299 300 299 297 296 295 293 290 288 286 284 281 278 273 267 258 253 250 248 244 244 245 246 247 248 251 253 255 258
Wind_Speed_850mb
34 33 33 34 35 36 38 40 42 45 48 46 47 43 45 49 47 46 39 40 43 43 42 44 40 39 30 34 33 26 23 19 19 20 18 19 22 24 32 33 29 27 31
30 30 30 29 28 29 31 32 33 33 34 34 35 37 34 29 34 40 39 40 41 42 38 35 27 32 26 24 25 22 20 19 14 11 13 18 28 30 28 26 26 28 30
28 27 27 28 29 29 27 26 26 26 25 24 23 22 23 24 26 26 31 33 38 36 30 26 24 24 23 22 19 14 10 9 11 11 23 28 32 32 25 28 33 37 44
26 27 27 26 26 26 25 24 24 22 23 19 18 21 21 23 28 31 35 33 28 20 17 23 19 17 15 11 9 9 11 10 18 25 25 30 25 24 32 34 38 43 46
26 26 26 26 25 24 23 21 19 21 19 20 19 19 20 20 22 20 15 13 15 17 21 19 17 15 13 9 6 10 19 25 26 27 27 18 21 27 32 38 43 48 52
29 29 27 28 27 25 23 22 22 21 21 16 16 17 16 17 18 19 18 18 22 23 20 17 16 16 14 10 15 24 29 30 31 22 15 16 20 28 34 39 44 49 53
34 34 33 31 28 26 25 24 24 22 21 16 17 20 21 22 22 22 23 23 22 19 17 16 16 16 15 21 28 35 35 30 21 18 16 21 23 31 36 36 37 40 44
38 37 35 32 30 29 28 25 25 22 21 19 20 22 21 22 22 23 22 21 21 21 21 19 17 18 24 32 37 36 25 20 16 15 21 22 26 29 32 35 38 41 41
42 38 35 32 30 30 29 27 24 23 21 20 22 23 23 22 23 24 24 26 27 25 23 19 22 24 34 36 32 25 22 19 18 21 23 26 29 29 31 32 33 39 45
37 33 32 30 29 29 28 26 25 25 25 25 25 26 26 26 27 30 31 31 31 30 24 23 26 34 38 32 25 26 22 21 22 23 21 22 25 26 28 31 33 36 39
32 31 29 29 29 29 28 27 28 28 28 28 28 30 31 32 35 37 37 37 37 31 27 29 33 38 35 29 27 26 22 22 25 26 21 21 22 25 27 29 31 32 32
28 27 28 28 29 30 30 30 30 30 31 31 33 35 37 38 40 41 42 41 40 34 33 36 40 41 35 32 31 27 26 27 28 23 23 22 23 23 24 25 26 28 30
28 28 28 28 28 29 30 31 30 32 34 36 37 40 41 42 42 44 46 46 43 39 40 42 42 44 40 38 34 32 31 30 27 27 23 24 24 24 24 22 22 22 25
23 23 23 25 27 31 32 32 33 35 37 39 41 42 44 45 47 48 50 52 48 45 44 44 45 47 44 41 37 36 34 31 30 30 27 26 26 27 26 24 21 19 17
19 19 22 27 30 33 35 34 35 36 37 39 40 42 46 47 47 50 53 52 48 47 47 48 50 48 48 47 44 42 40 38 36 34 30 28 27 29 28 27 26 23 22
17 18 22 27 31 33 34 34 35 36 38 41 45 48 49 50 52 53 53 56 56 55 56 56 57 56 53 51 50 49 47 46 42 39 35 31 31 29 27 28 27 25 24
16 19 24 27 30 33 35 38 40 41 43 46 49 52 53 57 60 59 59 64 67 68 65 62 63 64 61 59 59 58 55 52 48 44 40 35 33 31 29 29 30 28 28
16 20 24 27 31 35 38 42 45 48 51 52 51 53 55 60 64 64 66 71 74 74 73 66 66 67 66 66 65 64 63 59 55 49 45 41 37 35 32 31 32 32 32
19 23 27 31 34 37 41 44 47 51 54 56 57 58 57 60 62 65 63 71 79 79 79 80 69 68 68 69 68 68 68 64 60 57 53 49 43 39 36 34 34 34 35
29 32 35 38 41 43 46 48 51 55 57 59 60 61 61 61 67 71 72 71 77 80 77 80 77 73 74 71 71 72 71 71 69 64 60 54 48 42 39 37 37 37 37
29 33 36 40 43 46 49 52 53 55 58 61 63 62 63 66 69 70 76 81 84 91 88 85 83 80 75 75 74 77 77 77 74 71 66 60 52 47 43 42 40 38 39
34 38 40 43 47 49 52 54 57 59 62 64 65 65 63 65 71 76 76 80 85 92 95 93 93 92 88 85 82 80 81 80 78 74 68 63 58 53 48 46 42 41 42
40 42 44 47 49 53 55 56 59 61 63 65 66 68 67 69 71 72 76 78 79 87 93 91 92 94 93 95 91 82 83 82 78 72 67 66 62 58 52 49 46 44 43
47 50 52 55 57 59 61 62 62 63 64 65 66 66 66 66 68 72 73 70 74 80 88 89 87 87 90 90 94 88 84 82 77 71 71 72 66 60 57 53 50 46 45
54 56 58 59 60 61 63 64 65 65 66 67 68 67 66 67 68 70 73 75 72 76 81 81 82 82 82 84 89 91 86 83 85 76 75 73 68 64 59 56 52 49 48
60 60 61 61 62 63 64 65 65 65 66 67 67 68 70 70 72 71 71 73 73 73 75 75 77 74 73 76 81 84 85 85 84 77 74 72 71 67 61 58 54 52 51
Wind_Direction_850mb
211 218 221 227 232 239 247 251 252 251 255 254 253 251 250 252 254 249 254 250 249 258 267 275 280 254 260 273 271 269 269 266 270 274 280 286 295 305 308 308 312 323 330
207 215 221 225 229 234 238 245 247 251 252 250 251 254 254 243 241 242 243 255 248 257 270 276 263 264 264 274 277 280 291 295 279 285 280 295 304 304 305 316 325 333 336
201 209 215 223 230 235 240 244 248 247 244 241 237 233 240 242 237 239 243 253 262 271 259 267 263 273 279 284 286 290 270 256 264 283 300 299 302 305 310 324 328 334 348
206 216 223 229 235 238 239 239 239 234 236 227 227 237 243 249 252 256 261 267 251 238 274 281 274 271 269 265 249 245 257 272 291 292 292 294 298 316 325 327 335 341 342
221 229 233 235 238 239 242 244 247 245 235 233 240 246 248 250 258 264 233 236 281 283 267 258 257 244 224 230 259 290 290 287 285 288 295 296 318 319 323 333 333 338 344
229 236 237 239 240 242 242 246 247 248 252 241 234 234 242 247 250 258 268 263 261 255 247 240 220 205 209 233 289 293 286 282 283 279 282 307 311 315 329 330 337 342 344
236 237 236 236 236 236 239 243 248 242 241 234 237 233 235 239 239 245 247 244 238 228 221 213 212 212 250 285 298 296 284 285 273 276 289 299 314 325 325 325 330 338 338
235 235 234 233 233 232 232 233 236 240 239 240 237 240 242 238 236 233 224 217 216 212 210 211 223 258 281 296 292 285 275 267 267 282 291 305 315 317 322 325 330 332 335
232 233 235 234 233 233 234 234 236 239 235 236 240 239 240 236 231 225 218 215 210 210 207 232 257 278 295 289 281 265 259 259 271 282 293 304 310 317 320 321 328 330 336
228 229 229 227 228 231 235 237 238 237 235 234 235 241 238 234 229 226 221 216 214 212 237 256 277 290 287 275 257 248 251 261 273 275 285 298 304 310 314 320 327 334 337
219 220 222 225 227 228 231 233 238 236 238 239 239 240 239 235 229 226 224 221 219 230 253 274 288 290 282 261 248 249 253 258 264 269 283 287 296 301 310 318 323 327 330
216 219 222 225 230 232 232 234 237 240 241 241 242 242 240 237 232 227 226 228 227 247 265 281 288 283 268 254 251 251 249 256 257 265 274 285 290 298 304 308 313 319 322
211 213 220 228 233 237 238 240 240 242 244 244 244 244 243 241 237 234 235 231 238 254 272 280 279 271 261 254 253 252 252 255 259 265 271 276 283 288 294 300 306 312 312
205 215 225 233 239 242 244 244 245 245 245 245 246 246 246 244 243 243 241 239 247 264 278 280 276 264 256 253 250 248 251 252 254 261 264 272 281 289 295 300 304 304 304
212 223 233 239 244 246 247 249 250 250 251 253 254 254 253 254 254 252 251 252 259 272 279 276 270 260 254 253 249 247 248 248 249 255 259 266 278 286 292 299 303 308 312
226 238 247 251 255 259 261 263 264 264 265 263 262 260 258 257 254 253 256 256 262 271 275 272 268 261 258 255 251 249 248 247 247 251 254 261 271 277 285 291 295 301 306
247 255 261 266 270 271 273 275 276 273 272 270 267 265 264 263 260 261 262 260 263 268 270 272 266 262 260 256 253 251 250 248 247 249 252 256 264 269 277 285 291 296 300
266 272 278 281 281 281 281 281 282 281 279 276 272 270 268 266 265 266 267 266 265 267 271 272 264 258 259 256 255 254 251 249 249 250 251 255 257 262 270 277 284 291 296
278 280 281 283 286 288 289 289 288 286 284 282 280 278 276 274 271 268 264 258 261 263 268 274 271 261 260 257 256 253 251 250 249 250 250 251 253 257 265 274 280 286 292
281 282 285 287 288 289 289 289 288 287 286 285 283 282 282 277 271 270 268 263 260 262 267 272 275 266 264 259 257 254 251 251 250 249 250 250 251 255 262 270 277 283 288
286 288 289 289 289 289 289 289 288 287 287 287 287 285 283 279 276 272 271 270 268 269 270 273 275 272 264 260 257 256 253 251 249 249 249 250 250 254 259 266 272 277 280
290 290 290 291 292 293 293 293 293 292 291 291 291 289 287 282 279 278 275 272 273 274 275 275 276 273 267 259 259 257 255 252 251 249 249 251 251 252 256 263 268 273 276
297 297 297 296 296 296 295 294 294 294 294 294 294 294 293 290 287 284 283 283 280 279 277 277 277 276 273 265 260 254 253 252 251 251 250 251 250 252 255 260 264 267 272
295 295 294 294 294 293 293 293 293 293 293 294 294 294 292 291 290 289 287 284 283 282 281 282 280 278 276 268 261 255 253 252 249 247 248 248 248 248 252 256 261 265 267
291 291 291 292 292 292 292 293 293 293 294 295 296 297 296 295 294 294 292 291 288 284 283 283 281 280 277 271 262 256 252 249 248 246 246 245 246 247 248 252 256 259 262
290 290 291 291 290 290 291 292 293 295 296 298 298 299 299 300 299 297 296 295 293 290 288 286 284 281 278 273 267 258 253 250 248 244 244 245 246 247 248 251 253 255 258